FW1608 Weather Reports


time (UTC)temp
F
wind
direction
speed
knots
gust
knots
rain 1hr
in
rain 24hr
in
rain mn
in
humidity
%
barometer
mb
20260507040050 42 240 0.0 2.6 0.00 0.35 0.01 95 1014.0
20260507034557 43 240 1.7 4.3 0.00 0.35 0.01 96 1013.9
20260507033148 43 259 0.9 2.6 0.00 0.35 0.01 96 1014.0
20260507031544 43 259 0.9 2.6 0.00 0.35 0.01 96 1014.1
20260507030045 44 261 1.7 3.5 0.00 0.40 0.01 96 1014.0
20260507024555 44 259 1.7 3.5 0.00 0.40 0.01 96 1014.0
20260507023143 44 255 1.7 2.6 0.00 0.40 0.01 96 1013.9
20260507021547 44 255 1.7 2.6 0.00 0.40 0.01 96 1014.0
20260507020044 44 255 1.7 2.6 0.01 0.42 0.01 95 1014.0
20260507014543 44 255 0.9 2.6 0.01 0.42 0.01 95 1014.0
20260507013140 44 255 0.0 0.0 0.01 0.42 0.01 95 1013.9
20260507011542 44 254 0.0 3.5 0.01 0.42 0.01 95 1013.9
20260507010042 44 1 0.0 1.7 0.00 0.41 0.00 94 1014.2
20260507004535 44 8 1.7 7.0 0.00 0.41 0.00 94 1014.1
20260507003135 44 167 0.9 3.5 0.00 0.41 0.00 94 1013.9
20260507001602 44 184 0.0 5.2 0.00 0.41 0.00 94 1014.0
20260507000104 44 224 7.0 13.0 0.00 0.41 0.00 94 1013.9
20260506234602 44 215 2.6 4.3 0.00 0.41 0.00 95 1013.9
20260506233150 44 249 1.7 4.3 0.00 0.41 0.00 94 1013.8
20260506231548 44 229 1.7 3.5 0.00 0.41 0.00 94 1013.8
20260506230047 44 347 1.7 3.5 0.00 0.43 0.00 94 1013.8
20260506224549 44 351 0.0 3.5 0.00 0.43 0.00 94 1013.9
20260506223145 44 220 3.5 7.0 0.00 0.43 0.00 94 1013.8
20260506221548 45 191 1.7 5.2 0.00 0.43 0.00 93 1013.7
20260506220050 44 232 2.6 6.1 0.00 0.43 0.43 94 1013.9
20260506214544 44 205 2.6 5.2 0.00 0.43 0.43 94 1013.8
20260506213142 44 243 2.6 4.3 0.00 0.43 0.43 94 1013.6
20260506211546 44 269 0.9 3.5 0.00 0.43 0.43 94 1013.4
20260506210037 45 257 1.7 5.2 0.00 0.46 0.43 93 1013.4
20260506204537 45 259 0.0 5.2 0.00 0.46 0.43 94 1013.5
20260506203134 44 256 3.5 6.1 0.00 0.46 0.43 94 1013.4
20260506201555 44 256 1.7 5.2 0.00 0.46 0.43 94 1013.2
20260506200053 44 269 0.9 2.6 0.00 0.46 0.43 94 1013.1
20260506194552 44 265 2.6 5.2 0.00 0.46 0.43 94 1012.8
20260506193149 44 280 2.6 4.3 0.00 0.46 0.43 94 1012.5
20260506191550 44 300 1.7 4.3 0.00 0.46 0.43 94 1012.4
20260506190048 44 286 0.9 3.5 0.00 0.48 0.43 93 1012.2
20260506184547 44 290 1.7 3.5 0.00 0.48 0.43 93 1012.0
20260506183146 44 305 0.9 3.5 0.00 0.48 0.43 93 1011.9
20260506181543 44 289 1.7 3.5 0.00 0.48 0.43 93 1011.7
20260506180042 45 284 2.6 4.3 0.00 0.64 0.43 93 1011.4
20260506174549 45 282 3.5 5.2 0.00 0.64 0.43 92 1011.3
20260506173143 46 309 2.6 3.5 0.00 0.64 0.43 91 1011.2
20260506171537 46 292 2.6 6.1 0.00 0.64 0.43 90 1011.3
20260506170037 47 307 0.9 4.3 0.00 0.64 0.43 90 1011.0
20260506164537 47 309 1.7 3.5 0.00 0.64 0.43 89 1011.1
20260506163137 48 311 2.6 5.2 0.00 0.64 0.43 87 1011.1
20260506161605 49 303 2.6 4.3 0.00 0.64 0.43 87 1011.0
20260506160054 49 261 1.7 6.1 0.00 0.65 0.43 87 1011.1
20260506154554 49 85 0.0 3.5 0.00 0.65 0.43 88 1011.1
20260506153151 49 94 1.7 5.2 0.00 0.65 0.43 88 1011.1
20260506151548 49 263 2.6 7.0 0.00 0.65 0.43 88 1011.3
20260506150057 50 351 0.0 3.5 0.00 0.65 0.43 88 1011.0
20260506144602 50 150 0.9 5.2 0.00 0.65 0.43 89 1011.1
20260506143144 50 28 0.9 4.3 0.00 0.65 0.43 91 1011.3
20260506141542 49 72 0.0 0.0 0.00 0.65 0.43 91 1011.3
20260506140057 49 72 0.0 0.0 0.00 0.65 0.43 93 1011.3
20260506134544 48 62 0.0 0.0 0.00 0.65 0.43 94 1011.3
20260506133142 48 62 0.0 0.0 0.00 0.65 0.43 95 1011.3
20260506131545 48 61 0.0 5.2 0.00 0.65 0.43 96 1011.3
20260506130107 48 62 0.9 5.2 0.00 0.65 0.43 95 1011.4
20260506124540 50 24 0.0 5.2 0.00 0.65 0.43 97 1011.3
20260506123138 49 37 0.0 3.5 0.00 0.65 0.43 97 1011.2
20260506121559 48 76 0.0 0.0 0.00 0.65 0.43 98 1011.3
20260506120057 47 74 0.0 0.0 0.00 0.65 0.43 97 1011.3
20260506114553 47 71 0.0 5.2 0.00 0.65 0.43 97 1011.3
20260506113153 47 54 1.7 3.5 0.00 0.65 0.43 97 1011.3
20260506111551 47 72 0.0 3.5 0.01 0.65 0.43 97 1011.3
20260506110048 46 69 2.6 7.8 0.03 0.67 0.43 97 1011.3
20260506104555 46 68 0.9 2.6 0.04 0.67 0.43 97 1011.3
20260506103146 45 71 0.9 3.5 0.05 0.67 0.43 96 1011.4
20260506101544 46 63 0.9 3.5 0.04 0.66 0.42 96 1011.2
20260506100058 46 67 0.0 5.2 0.02 0.74 0.39 96 1011.1
20260506094544 47 32 2.6 7.0 0.02 0.73 0.39 95 1010.8
20260506093143 47 35 0.0 5.2 0.02 0.72 0.38 95 1010.8
20260506091544 47 122 0.0 6.1 0.02 0.72 0.38 94 1010.5
20260506090043 47 168 3.5 7.8 0.02 0.83 0.37 94 1010.3
20260506084541 47 161 5.2 7.0 0.01 0.83 0.36 94 1010.1
20260506083140 46 234 0.9 6.1 0.00 0.82 0.35 94 1010.0
20260506081550 46 217 0.9 7.8 0.00 0.82 0.35 95 1010.0
20260506073133 45 173 4.3 8.7 0.00 0.93 0.35 97 1009.4
20260506071555 44 180 2.6 8.7 0.01 0.93 0.35 97 1009.2
20260506061550 45 230 0.0 4.3 0.05 0.95 0.35 98 1008.8
20260506044549 45 264 0.0 0.0 0.06 0.85 0.24 97 1007.9
20260506043141 45 264 0.0 0.0 0.06 0.83 0.21 98 1007.7
20260506041551 45 228 0.0 0.0 0.06 0.80 0.19 98 1007.5